Location: Antoign�
(47.0844°N, 0.1131°W)
Time: 21:00:57
(UTC+00:00)

Cosmos 2333 - Pass Details

Date: 03 March 2021
Orbit: 829 x 867 km, 70.9° (Epoch: 14 April)

Event Time Altitude Azimuth Distance (km) Brightness Sun altitude
Rises 20:13:19 0° 214° (SSW) 3,375 7.5 -25.1°
Reaches altitude 10° 20:15:45 10° 217° (SW) 2,450 6.8 -25.5°
Maximum altitude 20:21:21 67° 300° (WNW) 914 4.5 -26.4°
Drops below altitude 10° 20:27:03 10° 23° (NNE) 2,491 6.6 -27.3°
Sets 20:29:33 0° 26° (NNE) 3,436 7.3 -27.7°
